Location: Croydon
(51.3762°N, 0.0982°W)
Time: 10:32:42
(UTC+01:00)

Envisat - Visible Passes

Search period start: 18 October 2019 00:00
Search period end: 27 October 2019 23:00
Orbit: 764 x 766 km, 98.1° (Epoch: 18 October)

Date Brightness Start Highest point End Pass type
(mag) Time Alt. Az. Time Alt. Az. Time Alt. Az.
18 Oct 6.1 06:48:49 10° NE 06:52:23 19° E 06:55:56 10° SE visible
18 Oct 4.8 19:47:22 10° SSW 19:51:58 34° W 19:56:35 10° NNW visible
19 Oct 3.4 19:09:58 10° S 19:15:00 66° WSW 19:20:05 10° NNW visible
19 Oct 6.3 20:54:06 10° W 20:55:02 10° W 20:55:58 10° WNW visible
20 Oct 3.0 18:33:12 10° SSE 18:38:14 65° ENE 18:43:17 10° N visible
20 Oct 5.5 20:13:53 10° SW 20:17:43 21° W 20:21:35 10° NW visible
21 Oct 6.2 06:37:59 10° NE 06:40:58 15° E 06:43:55 10° ESE visible
21 Oct 4.4 19:35:50 10° SSW 19:40:37 41° W 19:45:26 10° NNW visible
22 Oct 3.1 18:58:38 10° SSE 19:03:43 81° WSW 19:08:50 10° NNW visible
22 Oct 6.1 20:41:13 10° WSW 20:43:35 13° W 20:45:57 10° WNW visible
23 Oct 5.8 07:02:38 10° NE 07:06:48 25° E 07:10:55 10° SE visible
23 Oct 3.1 18:22:05 10° SE 18:27:00 53° ENE 18:31:58 10° N visible
23 Oct 5.2 20:02:07 10° SSW 20:06:20 26° W 20:10:34 10° NW visible
24 Oct 6.4 06:27:24 10° ENE 06:29:32 12° E 06:31:38 10° ESE visible
24 Oct 4.0 19:24:22 10° S 19:29:18 50° W 19:34:16 10° NNW visible
25 Oct 3.0 18:47:22 10° SSE 18:52:27 84° ENE 18:57:34 10° NNW visible
25 Oct 5.9 20:29:01 10° SW 20:32:09 16° W 20:35:18 10° NW visible
26 Oct 6.0 06:51:39 10° NE 06:55:25 20° E 06:59:08 10° SE visible
26 Oct 3.3 18:11:00 10° SE 18:15:48 44° ENE 18:20:37 10° N visible
26 Oct 4.9 19:50:28 10° SSW 19:54:58 31° W 19:59:30 10° NNW visible
27 Oct 3.6 18:12:57 10° S 18:17:59 61° WSW 18:23:03 10° NNW visible
